Needles, CA

11:35 PM PDT on June 27, 2017 (GMT -0700)
Needles

Weather History for KEED - July, 2012

Change the Weather History Date:

Saturday, July 21, 2012

  Actual Average Record
Temperature  
Mean Temperature 101 °F 97 °F  
Max Temperature 111 °F 109 °F 120 °F (2006)
Min Temperature 93 °F 85 °F 71 °F (1973)
Degree Days  
Heating Degree Days 0    
Cooling Degree Days 36    
Growing Degree Days 51 (Base 50)    
Moisture  
Dew Point 57 °F    
Average Humidity 24    
Maximum Humidity 36    
Minimum Humidity 16    
Precipitation  
Precipitation 0.00 in 0.01 in 0.72 in (1979)
Month to date precipitation 0.10  
Year to date precipitation 2.48  
Sea Level Pressure  
Sea Level Pressure 29.73 in    
Wind  
Wind Speed 6 mph (South)    
Max Wind Speed 25 mph    
Max Gust Speed 40 mph    
Visibility 10 miles    
Events      
T = Trace of Precipitation, MM = Missing Value Source: NWS Daily Summary

Daily Weather History Graph

Daily Weather History Graph

Search for Another Location

Airport or City:

Trip Planner

Search our weather history database for the weather conditions in past years. The results will help you decide how hot, cold, wet, or windy it might be!

Date:

Astronomy

Jul. 21, 2012 Rise Set
Actual Time 5:40 AM PDT 7:48 PM PDT
Civil Twilight 5:12 AM PDT 8:17 PM PDT
Nautical Twilight 4:37 AM PDT 8:51 PM PDT
Astronomical Twilight 4:00 AM PDT 9:28 PM PDT
Moon 8:17 AM PDT (7/21) 9:13 PM PDT (7/21)
Length of Visible Light 15h 04m
Length of Day
14h 07m
Waxing Crescent, 7% of the Moon is Illuminated
Jul 21
Waxing Crescent
Jul 26
First Quarter
Aug 1
Full
Aug 9
Last Quarter
Aug 17
New

Hourly Weather History & Observations

Time (PDT) Temp. Heat Index Dew Point Humidity Pressure Visibility Wind Dir Wind Speed Gust Speed Precip Events Conditions
12:56 AM 99.0 °F - 52.0 °F 21% 29.71 in 10.0 mi West 6.9 mph - N/A   Clear
1:56 AM 98.1 °F - 52.0 °F 21% 29.71 in 10.0 mi Calm Calm - N/A   Clear
2:56 AM 95.0 °F 93.0 °F 55.0 °F 26% 29.71 in 10.0 mi Calm Calm - N/A   Clear
3:56 AM 93.0 °F 91.1 °F 55.0 °F 28% 29.73 in 10.0 mi SSE 4.6 mph - N/A   Clear
4:56 AM 95.0 °F 93.0 °F 55.0 °F 26% 29.75 in 10.0 mi SW 3.5 mph - N/A   Clear
5:56 AM 93.9 °F 92.9 °F 57.9 °F 30% 29.77 in 10.0 mi South 4.6 mph - N/A   Clear
6:56 AM 93.9 °F 93.2 °F 59.0 °F 31% 29.78 in 10.0 mi WSW 5.8 mph - N/A   Clear
7:56 AM 96.1 °F 95.6 °F 59.0 °F 29% 29.80 in 10.0 mi SW 9.2 mph - N/A   Clear
8:56 AM 97.0 °F 96.5 °F 59.0 °F 28% 29.80 in 10.0 mi Calm Calm - N/A   Clear
9:56 AM 100.0 °F 100.2 °F 59.0 °F 26% 29.80 in 10.0 mi Variable 3.5 mph - N/A   Clear
10:56 AM 102.9 °F 103.0 °F 59.0 °F 23% 29.79 in 10.0 mi SE 8.1 mph - N/A   Clear
11:56 AM 104.0 °F 103.4 °F 57.0 °F 21% 29.78 in 10.0 mi Variable 4.6 mph - N/A   Clear
12:56 PM 106.0 °F 105.1 °F 55.9 °F 19% 29.74 in 10.0 mi Variable 3.5 mph - N/A   Clear
1:56 PM 108.0 °F 106.6 °F 55.0 °F 17% 29.72 in 10.0 mi SSW 10.4 mph 16.1 mph N/A   Clear
2:56 PM 109.0 °F 107.4 °F 54.0 °F 16% 29.68 in 10.0 mi Variable 4.6 mph - N/A   Clear
3:56 PM 109.9 °F 108.6 °F 54.0 °F 16% 29.65 in 10.0 mi SW 9.2 mph - N/A   Clear
4:56 PM 109.0 °F 107.4 °F 54.0 °F 16% 29.63 in 10.0 mi South 4.6 mph - N/A   Clear
5:56 PM 109.0 °F 107.4 °F 54.0 °F 16% 29.62 in 10.0 mi Variable 6.9 mph - N/A   Clear
6:56 PM 108.0 °F 106.6 °F 54.0 °F 17% 29.63 in 10.0 mi East 5.8 mph - N/A   Clear
7:56 PM 102.9 °F 103.0 °F 57.9 °F 23% 29.65 in 10.0 mi SE 18.4 mph - N/A   Clear
9:56 PM 100.9 °F 99.6 °F 55.9 °F 22% 29.69 in 10.0 mi SSE 6.9 mph - N/A   Clear
10:56 PM 95.0 °F 97.0 °F 64.0 °F 36% 29.73 in 10.0 mi SSE 25.3 mph 40.3 mph N/A   Mostly Cloudy
11:10 PM 95.0 °F 97.0 °F 64.4 °F 36% 29.86 in 10.0 mi SSE 20.7 mph 34.5 mph N/A   Mostly Cloudy
11:18 PM 95.0 °F 96.0 °F 62.6 °F 34% 29.86 in 10.0 mi SSE 24.2 mph 31.1 mph N/A   Scattered Clouds
11:56 PM 95.0 °F 95.6 °F 62.1 °F 33% 29.77 in 10.0 mi South 11.5 mph - N/A   Scattered Clouds